星链-2559 (STARLINK-2559 )

导读 | 星芒AI

STARLINK-2559 是 SpaceX Starlink 项目中的一颗低轨通信卫星,属于第二代 Starlink 卫星(Gen2)批次。该卫星于2023年发射,旨在为全球用户提供高速、低延迟的互联网服务。它运行在约550公里高度的近地轨道,配备先进通信设备,支持更广覆盖和更高带宽。Starlink 卫星群致力于构建全球宽带网络,尤其服务于偏远和网络基础设施薄弱地区。STARLINK-2559 作为其中一员,为实现这一目标发挥着重要作用。

基本信息
目录编号:
48298
目录名称:
STARLINK-2559
国际标识:
2021-036Y
轨道中心:
EARTH
卫星名称:
星链-2559
卫星全名:
星链-2559 (STARLINK-2559 )
卫星状态:
在轨 (已飞行1645 天)
发射日期:
2021-04-29 UTC
国别 :
美国 (US)
星等 :
--
轨道信息
数据来源 国际轨道数据 AOE轨道数据
星历时间 2025-10-30T15:18:08+0800
5小时前
查看轨道信息
2025-10-28T05:00:00+0800
2天前
查看轨道信息
半长轴 6925.343km 6925.384km
偏心率 0.0001494 0.0001213
轨道倾角 53.056° 53.055°
近地点辐角 75.407° 81.344°
升交点赤经 306.940° 317.847°
平近点角 284.708° 57.542°
近地点 546.173km 546.408km
远地点 548.243km 548.09km
周期 95.592分钟 95.593分钟
每日圈数 15.06402 15.063886
详细信息
固有亮度:
5
最大亮度:
2.5
卫星平台:
Starlink V1.0
覆盖范围:
全球
运营商:
太空探索技术公司
运营商所在国:
美国
制造商(研发单位):
太空探索技术公司
制造商所在国:
美国
使用方式:
暂无
卫星简介
星链(Starlink)计划是由太空探索技术公司(SpaceX)提出的一个巨型低轨卫星互联网星座项目,计划在2019年至2024年间在太空搭建由约1.2万颗卫星组成的“星链”网络,其中1584颗将部署在地球上空550千米处的近地轨道,并从2020年开始工作。该卫星仍在工作。
2D轨道图
3D轨道图
轨道高度分析图
轨道倾角分析图
轨道综合分析图
查看轨道综合分析图